SCP
0 0 0 0 0 0 0 0 0 0 0 0 0 -0 0 0 0 0 0 0 0 0 0 0 0 0 0 0 0 0 0 0 0 0 0 0 0 0 0 0 0 0 0 0 0 0 0 0 0 0 0 0 0 0
0 0 0 0 0 0 0 0 0 0 0 0 0 0 -0 0 0 0 0 0 0 0 0 0 0 0 0 0 0 0 0 0 0 0 0 0 0 0 0 0 0 0 0 0 0 0 0 0 0 0 0 0 0 0
0 0 0 0 0 0 0 0 0 0 0 0 0 0 0 0 0 0 0 0 0 0 0 0 0 0 0 0 0 0 0 0 0 0 0 0 0 0 0 0 0 0 0 0 0 0 0 0 0 0 0 0 0 0
0 0 0 0 0 0 0 0 0 0 0 0 0 0 0 0 0 0 0 0 0 0 0 0 0 0 0 0 0 0 0 0 0 0 0 0 0 0 0 0 0 0 0 0 0 0 0 0 0 0 0 0 0 0
0 0 0 0 0 0 0 0 0 0 0 0 0 0 0 0 0 0 0 0 0 0 0 0 0 0 0 0 0 0 0 0 0 0 0 0 0 0 0 0 0 0 0 0 0 0 0 0 0 0 0 0 0 0
0 0 0 0 0 0 0 0 0 0 0 0 0 0 0 0 0 0 0 0 0 0 0 0 0 0 0 0 0 0 0 0 0 0 0 0 0 0 0 0 0 0 0 0 0 0 0 0 0 0 0 0 0 0
0 0 0 0 0 0 0 0 0 0 0 0 0 0 0 0 0 0 0 0 -0 0 0 0 0 0 0 0 0 0 0 0 0 0 0 0 0 0 0 0 0 0 0 0 0 0 0 0 0 0 0 0 0 0
0 0 0 0 0 0 0 0 0 0 0 0 0 0 0 0 0 0 0 0 0 0 0 0 0 0 0 0 0 0 0 0 0 0 0 0 0 0 0 0 0 0 0 0 0 0 0 0 0 0 0 0 0 0
0 0 0 0 0 0 0 0 0 0 0 0 0 0 0 0 0 0 -0 0 0 0 0 0 0 0 0 0 0 0 0 0 0 0 0 0 0 0 0 0 0 0 0 0 0 0 0 0 0 0 0 0 0 0
0 0 0 0 0 0 0 0 0 0 0 0 0 0 0 0 0 0 0 0 0 -0 0 0 0 0 0 0 0 0 0 0 0 0 0 0 0 0 0 0 0 0 0 0 0 0 0 0 0 0 0 0 0 0
0 0 0 0 0 0 0 0 0 0 0 0 0 0 0 0 0 0 0 -0 0 0 0 0 0 0 0 0 0 0 0 0 0 0 0 0 0 0 0 0 0 0 0 0 0 0 0 0 0 0 0 0 0 0
0 0 0 0 0 0 0 0 0 0 0 0 0 0 0 0 0 0 0 0 0 0 0 0 0 0 0 0 0 0 0 0 0 0 0 0 0 0 0 0 0 0 0 0 0 0 0 0 0 0 0 0 0 0
0 0 0 0 0 0 0 0 0 0 0 0 0 0 0 0 0 0 0 0 0 0 0 0 0 0 0 0 0 0 0 0 0 0 0 0 0 0 0 0 0 0 0 0 0 0 0 0 0 0 0 0 0 0
0 0 0 0 0 0 0 0 0 0 0 0 0 0 0 0 0 0 0 0 0 0 0 0 0 0 0 0 0 0 0 0 0 0 0 0 0 0 0 0 0 0 0 0 0 0 0 0 0 0 0 0 0 0
0 0 0 0 0 0 0 0 0 0 0 0 0 0 0 0 0 0 0 0 0 0 0 0 0 0 0 0 0 0 0 0 0 0 0 0 0 0 0 0 0 0 0 0 0 0 0 0 0 0 0 0 0 0
0 0 0 0 0 0 0 0 0 0 0 0 0 0 0 0 0 0 0 0 0 0 0 0 0 0 0 0 0 0 0 0 0 0 0 0 0 0 0 0 0 0 0 0 0 0 0 0 0 0 0 0 0 0
0 0 0 0 0 0 0 0 0 0 0 0 0 0 0 0 0 0 0 0 0 0 0 0 0 0 0 0 0 0 0 0 0 0 0 0 0 0 0 0 0 0 0 0 0 0 0 0 0 0 0 0 0 0
0 0 0 0 0 0 0 0 0 0 0 0 0 0 0 0 0 0 0 0 0 0 0 0 0 0 0 0 0 0 0 0 0 0 0 0 0 0 0 0 0 0 0 0 0 0 0 0 0 0 0 0 0 0
-0 -0 0 0 0 0 0 0 0 0 0 0 0 0 0 0 0 0 0 0 0 0 0 0 0 0 0 0 0 0 0 0 0 0 0 0 0 0 0 0 0 0 0 0 0 0 0 0 0 0 0 0 0 0
0 -0 -0 -0 0 0 0 0 0 0 0 0 0 0 0 0 0 0 0 0 0 0 0 0 0 0 0 0 0 0 0 0 0 0 0 0 0 0 0 0 0 0 0 0 0 0 0 0 0 0 0 0 0 0
0 0 -0 -0 0 0 0 0 0 0 0 0 0 0 0 0 0 0 0 0 0 0 0 0 0 0 0 0 0 0 0 0 0 0 0 0 0 0 0 0 0 0 0 0 0 0 0 0 0 0 0 0 0 0
0 0 0 0 -0 0 0 0 0 0 0 0 0 0 0 0 0 0 0 0 0 0 0 0 0 0 0 0 0 0 0 0 0 0 0 0 0 0 0 0 0 0 0 0 0 0 0 0 0 0 0 0 0 0
0 0 0 0 0 0 0 0 0 0 0 0 0 0 0 0 0 0 0 0 0 0 0 0 0 0 0 0 0 0 0 0 0 0 0 0 0 0 0 0 0 0 0 0 0 0 0 0 0 0 0 0 0 0
0 0 0 0 0 0 0 0 0 0 0 0 0 0 0 0 0 0 0 0 0 0 0 0 0 0 0 0 0 0 0 0 0 0 0 0 0 0 0 0 0 0 0 0 0 0 0 0 0 0 0 0 0 0
0 0 0 0 0 0 0 0 0 0 0 0 0 0 0 0 0 0 0 0 0 0 0 0 0 0 0 0 0 0 0 0 0 0 0 0 0 0 0 0 0 0 0 0 0 0 0 0 0 0 0 0 0 0
-0 0 0 0 0 0 0 0 0 0 0 0 0 0 0 0 0 0 0 0 0 0 0 0 0 0 0 0 0 0 0 0 0 0 0 0 0 0 0 0 0 0 0 0 0 0 0 0 0 0 0 0 0 0
-0 -0 0 0 0 0 0 0 0 0 0 0 0 0 0 0 0 0 0 0 0 0 0 0 0 0 0 0 0 0 0 0 0 0 0 0 0 0 0 0 0 0 0 0 0 0 0 0 0 0 0 0 0 0
-0 -0 -0 -0 0 0 0 0 0 0 0 0 0 0 0 0 0 0 0 0 0 0 0 0 0 0 0 0 0 0 0 0 0 0 0 0 0 0 0 0 0 0 0 0 0 0 0 0 0 0 0 0 0 0
0 0 0 0 0 0 0 0 0 0 0 0 0 0 0 0 0 0 0 0 0 0 0 0 0 0 0 0 0 0 0 0 0 0 0 0 0 0 0 0 0 0 0 0 0 0 0 0 0 0 0 0 0 0
0 0 0 0 0 0 0 0 0 0 0 0 0 0 0 0 0 0 0 0 0 0 0 0 0 0 0 0 0 0 0 0 0 0 0 0 0 0 0 0 0 0 0 0 0 0 0 0 0 0 0 0 0 0
0 0 0 0 0 0 0 0 0 0 0 0 0 0 0 0 0 0 0 0 0 0 0 0 0 0 0 0 0 0 0 0 0 0 0 0 0 0 0 0 0 0 0 0 0 0 0 0 0 0 0 0 0 0
0 0 0 0 0 0 0 0 0 0 0 0 0 0 0 0 0 0 0 0 0 0 0 0 0 0 0 0 0 0 0 0 0 0 0 0 0 0 0 0 0 0 0 0 0 0 0 0 0 0 0 0 0 0
-0 -0 -0 0 -0 -0 0 0 0 0 0 0 0 0 0 0 0 0 0 0 0 0 0 0 0 0 0 0 0 0 0 0 0 0 0 0 0 0 0 0 0 0 0 0 0 0 0 0 0 0 0 0 0 0
Wind_Speed_500mb
56 55 52 54 57 56 53 48 47 48 45 42 45 52 41 49 66 55 61 65 60 21 24 24 38 25 11 13 8 14 10 6 3 12 11 8 11 15 8 11 15 13 17 9 8 10 15 13 7 17 5 13 11 4
56 58 57 52 50 53 54 51 49 49 48 47 44 46 53 46 39 51 53 69 66 35 16 32 44 41 45 26 15 30 5 7 13 7 6 5 3 3 6 6 3 9 13 9 13 8 5 8 2 3 5 4 6 2
53 53 57 55 51 49 49 50 50 51 52 50 51 50 51 53 45 53 59 59 59 39 21 33 42 39 43 48 37 14 12 16 13 11 3 2 6 4 9 10 5 6 5 5 6 2 5 14 7 9 2 3 8 4
47 44 44 47 49 49 49 50 53 54 54 55 54 56 56 53 56 49 60 63 68 20 9 18 39 46 43 45 47 39 15 22 17 18 4 4 4 7 3 2 2 3 9 9 3 3 6 25 22 16 3 7 12 10
46 44 42 42 45 49 50 52 55 56 57 57 57 56 53 54 56 55 57 58 72 55 13 12 27 42 40 40 45 37 20 25 14 6 4 5 6 6 2 2 5 11 9 7 6 16 9 14 34 32 32 31 17 11
47 46 43 40 42 44 43 41 41 40 44 54 59 57 57 59 53 52 30 55 54 79 9 6 9 19 32 32 34 34 25 22 12 11 5 7 7 5 6 6 4 21 25 28 10 33 29 11 26 37 32 32 17 13
46 40 35 34 34 36 35 29 30 32 34 38 43 48 58 60 55 49 8 4 29 70 20 6 6 11 27 38 25 25 23 9 7 7 7 8 8 10 1 5 10 26 26 26 32 36 23 19 6 19 24 22 22 22
44 37 37 39 33 29 29 32 32 35 41 43 44 47 51 57 57 62 76 49 36 29 20 9 6 12 35 15 10 17 14 12 9 9 8 5 7 3 5 12 17 23 26 23 16 16 13 21 15 9 6 5 9 22
46 38 38 43 43 38 34 34 37 41 42 44 46 44 46 59 50 68 62 58 62 41 6 8 17 11 34 13 14 11 12 4 10 4 5 13 4 8 11 19 6 14 8 11 24 21 13 12 9 6 3 4 6 10
38 37 35 39 42 43 41 42 40 40 40 39 34 25 22 52 65 35 27 19 34 30 18 5 19 8 28 13 6 8 12 6 6 8 17 5 6 11 14 16 14 12 13 10 13 14 16 17 20 18 14 13 17 20
32 31 37 36 38 39 43 39 41 36 35 28 26 20 17 31 40 31 16 14 13 9 20 9 10 18 18 8 7 8 6 6 7 7 9 5 7 7 8 11 7 7 10 14 16 15 12 15 18 19 21 26 30 28
32 34 35 31 34 36 36 42 39 34 37 27 26 22 32 21 16 15 13 10 13 11 8 11 14 23 18 15 7 8 6 5 9 15 6 6 3 8 4 3 5 10 15 17 20 22 25 28 30 32 33 29 27 29
28 27 31 47 42 35 37 35 33 33 38 21 19 11 12 12 13 12 14 7 5 9 18 26 12 18 12 9 6 5 9 7 22 5 8 4 12 10 9 4 2 3 5 9 12 14 15 17 19 21 23 23 22 22
11 11 7 17 5 13 9 19 27 33 26 13 11 13 10 7 5 5 5 8 13 32 37 51 13 8 10 6 6 10 5 9 9 9 11 4 11 12 10 9 4 3 3 4 5 6 8 9 9 10 13 15 16 17
6 8 7 10 12 8 8 6 21 46 18 12 8 6 1 3 11 7 5 5 9 51 65 26 15 9 5 8 6 8 7 9 10 8 4 10 14 13 13 12 12 10 7 7 8 7 7 6 4 2 2 2 3 5
6 6 10 12 7 6 10 3 18 6 8 7 18 2 9 4 6 7 19 12 24 40 41 15 7 7 5 11 9 7 17 9 5 4 13 6 11 12 14 15 18 20 18 15 13 12 13 14 13 12 11 10 10 9
11 8 14 13 7 11 10 1 6 14 11 9 7 18 11 10 8 11 18 12 4 19 3 5 8 7 8 6 7 9 6 4 14 17 13 15 14 13 12 14 17 22 23 22 20 20 18 18 16 16 13 15 15 16
30 28 26 20 13 7 8 11 11 14 12 16 7 22 17 26 12 18 21 23 9 10 9 7 11 14 9 7 5 5 15 18 19 18 20 19 21 20 16 16 19 22 23 24 22 22 21 19 16 16 15 16 13 13
28 30 33 29 14 3 8 12 13 8 10 9 14 20 22 20 43 29 25 26 38 29 20 13 15 8 7 9 10 18 17 13 9 14 21 24 25 24 22 23 23 21 19 21 19 17 15 13 14 15 15 13 9 11
15 19 29 33 18 8 11 13 11 13 6 8 17 20 15 15 23 35 55 52 44 20 18 12 8 7 9 8 7 5 7 8 11 19 16 22 20 20 25 26 28 27 23 23 19 17 15 12 11 9 6 3 2 3
5 14 23 29 17 24 15 11 14 10 9 13 10 11 13 22 26 32 32 37 31 18 8 19 18 18 18 12 10 10 7 9 11 12 9 12 20 21 24 24 24 22 22 21 17 16 14 11 9 7 4 3 3 4
7 8 11 20 17 13 17 20 9 6 9 11 11 13 13 6 13 26 22 47 18 18 16 18 19 19 25 25 24 23 21 21 19 19 17 16 19 23 25 25 21 23 19 17 15 13 10 8 6 5 5 6 8 8
8 11 16 23 12 18 8 15 9 15 6 5 8 7 8 8 13 18 15 19 15 28 25 21 21 24 26 27 29 28 28 28 28 29 30 28 28 28 26 25 22 19 16 16 14 12 11 10 10 10 10 11 12 12
16 17 21 18 29 8 12 14 15 12 11 8 7 7 8 8 13 15 10 9 20 28 30 27 19 20 27 32 37 35 34 33 31 29 29 28 29 32 28 27 23 20 17 15 12 11 11 12 12 13 14 15 16 17
16 26 20 17 22 16 14 10 12 9 9 12 7 8 7 10 7 9 6 11 28 35 32 28 32 30 32 30 29 29 28 29 31 28 27 23 25 21 19 19 20 20 16 12 12 13 13 13 14 15 16 18 20 22
18 23 15 15 15 10 9 8 12 16 10 7 10 7 9 7 10 10 4 11 18 22 25 28 27 28 30 28 26 25 24 23 21 25 29 22 16 14 14 13 13 15 17 17 18 17 18 19 21 22 23 24 26 29
14 11 15 22 11 10 9 14 15 10 11 13 8 9 7 11 9 5 5 11 9 14 17 17 17 18 21 20 19 19 19 16 15 16 14 12 14 16 16 17 19 20 22 22 24 27 29 30 31 33 34 33 34 37
15 22 12 25 17 25 8 8 11 12 8 17 7 12 7 6 5 6 6 8 9 12 16 19 17 15 13 14 12 10 6 4 5 8 11 11 13 17 19 21 26 29 31 32 33 34 35 36 38 44 49 52 53 51
14 27 13 13 12 17 19 11 10 15 18 8 5 5 6 10 13 15 16 13 9 10 15 22 25 21 18 15 13 10 9 9 8 8 12 16 19 19 24 26 27 28 30 30 30 32 34 37 43 48 51 53 56 58
28 34 9 18 10 13 19 19 26 34 36 32 37 50 42 36 25 18 13 8 5 11 21 26 25 19 15 15 17 17 17 17 19 19 19 20 21 23 25 27 28 29 32 34 36 37 38 41 43 44 46 48 49 51
16 19 16 18 12 16 29 40 47 53 59 57 53 47 31 23 31 37 36 26 18 13 13 16 20 22 21 19 20 18 17 18 20 21 23 25 27 29 31 33 35 37 38 40 42 46 50 53 54 56 57 57 57 58
17 17 8 7 6 9 7 8 11 11 13 13 14 10 8 5 6 6 22 35 33 17 17 26 28 27 26 24 23 23 20 22 25 27 29 30 30 32 34 36 39 42 43 45 49 54 56 59 61 60 61 61 61 61
11 16 13 7 6 8 14 11 8 6 11 8 11 12 9 5 4 5 16 31 42 32 18 28 29 29 28 26 26 24 26 30 31 32 34 35 37 38 40 42 45 47 50 54 56 57 58 57 57 56 56 57 59 59
Wind_Direction_500mb
275 274 275 266 256 254 255 260 262 263 257 246 252 262 257 247 237 219 228 227 209 200 221 215 227 214 203 194 179 151 127 194 125 207 220 196 214 198 172 158 169 162 175 189 196 225 241 167 88 170 250 331 300 215
274 271 269 267 260 254 252 255 259 264 260 252 251 252 255 256 250 241 247 223 228 223 220 218 231 237 231 222 203 181 196 161 165 189 209 169 162 165 152 208 37 201 192 193 195 209 306 189 268 166 36 341 358 185
276 268 264 263 259 257 252 254 258 257 256 256 252 252 252 249 246 251 241 213 216 218 248 242 236 241 235 230 223 189 213 184 184 186 129 97 213 143 190 224 119 239 169 177 132 156 270 225 237 186 201 106 32 9
278 276 269 261 257 256 255 255 257 256 251 250 248 245 247 247 247 248 251 210 211 209 219 225 229 225 233 226 223 223 229 191 181 171 170 182 194 184 202 350 240 174 139 136 360 298 288 240 243 224 204 258 300 309
278 276 271 266 260 256 254 255 256 255 253 249 248 247 245 244 244 246 248 252 212 190 192 173 204 218 223 218 217 219 204 194 165 160 181 195 115 148 214 33 241 185 163 176 209 187 181 224 222 215 224 234 258 263
272 270 269 270 268 262 257 255 255 256 254 249 244 242 238 237 236 233 232 241 232 204 204 164 193 185 197 199 205 212 218 200 186 165 155 173 181 178 175 209 202 185 177 156 173 191 200 219 235 237 243 260 255 234
264 260 262 269 273 260 253 253 262 267 264 259 251 245 234 233 229 227 183 182 215 201 174 137 166 175 158 155 157 174 177 185 156 145 190 145 180 170 146 203 221 205 192 173 179 188 206 222 239 239 249 250 234 215
259 259 266 269 271 273 265 262 265 268 273 265 264 251 241 229 231 238 240 241 238 216 192 179 112 145 167 154 135 153 153 161 176 156 161 155 126 133 239 235 232 186 186 191 171 167 156 185 195 181 165 154 202 226
253 256 264 261 259 262 269 273 271 272 265 269 266 247 237 223 223 232 239 238 242 234 239 139 153 164 169 142 127 146 154 158 165 165 211 148 183 213 223 216 178 182 176 195 192 196 175 161 164 173 201 241 251 235
238 247 269 260 252 257 262 268 271 269 271 268 244 217 217 213 213 210 200 195 203 201 238 185 127 128 164 136 137 122 169 149 160 217 150 135 247 131 85 112 131 140 183 146 175 197 234 253 261 259 271 277 273 264
248 265 271 269 252 250 257 261 266 270 273 244 200 209 200 178 179 196 204 189 184 188 164 139 118 135 165 133 133 136 162 156 153 226 131 215 259 121 154 176 180 194 200 207 212 207 223 250 258 254 263 271 268 261
256 262 269 267 261 262 256 259 257 251 244 218 184 177 155 170 194 205 189 195 185 164 161 131 135 117 126 143 114 184 139 143 189 146 125 237 129 79 134 178 218 235 239 238 239 243 249 257 262 265 270 267 261 255
240 251 266 261 250 251 256 251 252 244 246 209 184 173 153 227 181 192 161 158 169 155 163 147 125 129 120 145 116 149 145 181 131 106 211 194 99 58 38 46 140 166 194 199 204 214 224 234 244 249 253 257 257 252
238 204 273 41 348 317 268 255 247 204 191 210 179 184 189 223 176 161 172 185 151 146 150 143 119 131 134 140 134 143 98 132 168 154 224 73 33 16 21 26 38 79 124 134 169 178 192 202 218 237 244 244 247 246
265 329 355 342 338 313 328 310 196 192 188 191 187 251 191 43 71 125 65 82 95 150 141 116 77 108 109 121 84 123 155 163 186 206 73 45 17 26 34 45 59 72 88 111 118 123 125 125 137 150 179 212 219 217
219 282 307 339 343 331 336 84 209 214 93 62 34 100 333 54 331 62 60 59 115 146 134 101 125 116 121 127 143 166 155 178 109 56 50 32 37 42 52 59 73 82 83 82 87 95 100 106 107 112 120 129 129 128
87 59 20 7 339 340 335 222 71 52 48 48 53 23 358 33 38 31 23 30 336 183 116 122 116 99 126 110 94 16 56 60 72 64 41 41 48 55 62 64 77 82 87 92 94 96 98 100 103 102 112 119 125 131
60 35 16 357 348 328 37 48 78 62 60 25 55 22 52 34 17 27 10 13 43 34 38 54 29 52 45 74 81 52 50 67 77 68 50 49 53 60 66 74 81 88 94 98 99 100 105 104 103 105 109 117 125 132
48 27 15 10 10 53 67 46 52 88 61 58 57 49 60 75 45 47 44 66 78 87 86 47 56 48 59 39 38 47 44 43 37 67 60 56 60 63 69 75 79 86 93 97 100 102 95 104 117 125 129 134 151 152
42 17 13 13 11 75 73 38 57 76 63 69 47 40 61 58 33 33 44 58 57 52 48 44 41 25 41 31 47 18 32 43 93 123 74 49 57 70 76 76 78 76 72 72 71 71 78 80 83 87 88 95 143 165
41 34 23 24 46 56 70 39 53 67 87 76 45 54 79 44 32 19 29 27 61 34 62 41 34 47 53 47 48 66 48 88 90 103 94 83 68 73 77 77 74 73 72 69 65 63 55 53 53 45 45 10 319 286
81 59 47 46 58 65 64 38 57 36 68 85 61 49 44 38 25 21 33 40 65 27 24 10 33 57 58 55 62 67 74 79 86 87 86 95 96 81 73 71 74 69 63 58 50 48 46 43 29 7 351 320 304 302
79 52 53 30 72 43 7 25 46 22 55 63 57 45 40 49 42 31 74 49 59 13 25 43 58 65 70 72 74 79 81 81 87 89 81 75 77 75 72 69 66 64 63 57 49 38 24 14 360 343 333 319 314 309
76 53 31 35 25 6 1 30 23 24 38 41 46 59 45 34 52 64 69 61 9 27 44 55 75 86 82 75 68 67 68 73 76 81 82 83 80 75 71 70 67 65 60 55 44 31 16 360 344 332 323 317 312 308
78 13 23 5 12 15 25 18 7 10 53 23 61 54 43 40 68 64 60 15 11 30 41 58 62 63 65 65 65 66 69 72 70 80 81 80 85 84 77 70 61 56 49 36 25 14 2 349 338 328 319 311 305 302
68 24 40 3 4 26 1 30 19 15 6 58 39 53 44 63 67 63 61 12 19 25 34 47 55 63 63 63 69 76 77 75 70 76 74 68 70 64 62 47 37 24 16 10 358 348 338 330 323 316 312 309 305 301
45 355 25 20 5 358 48 38 28 39 38 24 0 15 45 67 72 75 100 46 44 37 40 43 48 55 62 68 73 78 83 79 61 57 58 36 26 24 16 7 358 350 344 336 327 320 317 314 310 303 298 295 297 297
48 33 25 0 43 28 57 41 31 16 356 345 356 33 69 63 95 123 125 116 89 60 39 35 39 46 47 46 43 37 14 322 307 333 328 332 336 335 328 325 319 315 312 309 306 303 301 299 297 292 293 295 295 293
26 352 23 18 41 52 37 26 13 360 337 354 87 76 92 74 111 122 120 114 90 43 42 47 40 31 23 17 15 6 355 349 351 330 321 317 317 316 315 316 314 313 311 310 309 310 308 306 304 303 302 301 300 299
7 18 67 31 48 47 18 47 39 50 67 86 102 102 92 91 92 94 91 82 45 29 29 19 14 15 17 17 15 12 9 3 358 357 352 343 337 331 329 326 325 324 323 320 318 317 314 310 308 306 305 305 305 305
35 38 49 51 76 74 83 83 78 80 84 87 94 96 104 106 84 63 56 52 43 38 26 13 9 11 10 11 11 10 2 357 350 341 333 327 325 326 325 324 323 322 319 316 318 320 320 318 317 314 312 311 310 309
37 38 51 69 66 55 60 54 57 57 49 53 47 51 65 81 87 77 29 24 22 15 12 9 3 2 359 353 349 345 339 336 334 329 324 319 316 314 315 316 317 317 317 317 319 319 318 317 316 316 314 313 313 311
40 39 49 60 44 25 15 22 48 72 50 46 42 36 38 46 81 53 12 5 5 4 0 355 355 348 343 340 339 332 328 326 323 321 319 318 317 317 319 319 317 320 320 318 318 318 318 318 317 318 318 317 316 315
Wind_Speed_850mb
56 55 52 54 57 56 53 48 47 48 45 42 45 52 41 49 66 55 61 65 60 21 24 24 38 25 11 13 8 14 10 6 3 12 11 8 11 15 8 11 15 13 17 9 8 10 15 13 7 17 5 13 11 4
56 58 57 52 50 53 54 51 49 49 48 47 44 46 53 46 39 51 53 69 66 35 16 32 44 41 45 26 15 30 5 7 13 7 6 5 3 3 6 6 3 9 13 9 13 8 5 8 2 3 5 4 6 2
53 53 57 55 51 49 49 50 50 51 52 50 51 50 51 53 45 53 59 59 59 39 21 33 42 39 43 48 37 14 12 16 13 11 3 2 6 4 9 10 5 6 5 5 6 2 5 14 7 9 2 3 8 4
47 44 44 47 49 49 49 50 53 54 54 55 54 56 56 53 56 49 60 63 68 20 9 18 39 46 43 45 47 39 15 22 17 18 4 4 4 7 3 2 2 3 9 9 3 3 6 25 22 16 3 7 12 10
46 44 42 42 45 49 50 52 55 56 57 57 57 56 53 54 56 55 57 58 72 55 13 12 27 42 40 40 45 37 20 25 14 6 4 5 6 6 2 2 5 11 9 7 6 16 9 14 34 32 32 31 17 11
47 46 43 40 42 44 43 41 41 40 44 54 59 57 57 59 53 52 30 55 54 79 9 6 9 19 32 32 34 34 25 22 12 11 5 7 7 5 6 6 4 21 25 28 10 33 29 11 26 37 32 32 17 13
46 40 35 34 34 36 35 29 30 32 34 38 43 48 58 60 55 49 8 4 29 70 20 6 6 11 27 38 25 25 23 9 7 7 7 8 8 10 1 5 10 26 26 26 32 36 23 19 6 19 24 22 22 22
44 37 37 39 33 29 29 32 32 35 41 43 44 47 51 57 57 62 76 49 36 29 20 9 6 12 35 15 10 17 14 12 9 9 8 5 7 3 5 12 17 23 26 23 16 16 13 21 15 9 6 5 9 22
46 38 38 43 43 38 34 34 37 41 42 44 46 44 46 59 50 68 62 58 62 41 6 8 17 11 34 13 14 11 12 4 10 4 5 13 4 8 11 19 6 14 8 11 24 21 13 12 9 6 3 4 6 10
38 37 35 39 42 43 41 42 40 40 40 39 34 25 22 52 65 35 27 19 34 30 18 5 19 8 28 13 6 8 12 6 6 8 17 5 6 11 14 16 14 12 13 10 13 14 16 17 20 18 14 13 17 20
32 31 37 36 38 39 43 39 41 36 35 28 26 20 17 31 40 31 16 14 13 9 20 9 10 18 18 8 7 8 6 6 7 7 9 5 7 7 8 11 7 7 10 14 16 15 12 15 18 19 21 26 30 28
32 34 35 31 34 36 36 42 39 34 37 27 26 22 32 21 16 15 13 10 13 11 8 11 14 23 18 15 7 8 6 5 9 15 6 6 3 8 4 3 5 10 15 17 20 22 25 28 30 32 33 29 27 29
28 27 31 47 42 35 37 35 33 33 38 21 19 11 12 12 13 12 14 7 5 9 18 26 12 18 12 9 6 5 9 7 22 5 8 4 12 10 9 4 2 3 5 9 12 14 15 17 19 21 23 23 22 22
11 11 7 17 5 13 9 19 27 33 26 13 11 13 10 7 5 5 5 8 13 32 37 51 13 8 10 6 6 10 5 9 9 9 11 4 11 12 10 9 4 3 3 4 5 6 8 9 9 10 13 15 16 17
6 8 7 10 12 8 8 6 21 46 18 12 8 6 1 3 11 7 5 5 9 51 65 26 15 9 5 8 6 8 7 9 10 8 4 10 14 13 13 12 12 10 7 7 8 7 7 6 4 2 2 2 3 5
6 6 10 12 7 6 10 3 18 6 8 7 18 2 9 4 6 7 19 12 24 40 41 15 7 7 5 11 9 7 17 9 5 4 13 6 11 12 14 15 18 20 18 15 13 12 13 14 13 12 11 10 10 9
11 8 14 13 7 11 10 1 6 14 11 9 7 18 11 10 8 11 18 12 4 19 3 5 8 7 8 6 7 9 6 4 14 17 13 15 14 13 12 14 17 22 23 22 20 20 18 18 16 16 13 15 15 16
30 28 26 20 13 7 8 11 11 14 12 16 7 22 17 26 12 18 21 23 9 10 9 7 11 14 9 7 5 5 15 18 19 18 20 19 21 20 16 16 19 22 23 24 22 22 21 19 16 16 15 16 13 13
28 30 33 29 14 3 8 12 13 8 10 9 14 20 22 20 43 29 25 26 38 29 20 13 15 8 7 9 10 18 17 13 9 14 21 24 25 24 22 23 23 21 19 21 19 17 15 13 14 15 15 13 9 11
15 19 29 33 18 8 11 13 11 13 6 8 17 20 15 15 23 35 55 52 44 20 18 12 8 7 9 8 7 5 7 8 11 19 16 22 20 20 25 26 28 27 23 23 19 17 15 12 11 9 6 3 2 3
5 14 23 29 17 24 15 11 14 10 9 13 10 11 13 22 26 32 32 37 31 18 8 19 18 18 18 12 10 10 7 9 11 12 9 12 20 21 24 24 24 22 22 21 17 16 14 11 9 7 4 3 3 4
7 8 11 20 17 13 17 20 9 6 9 11 11 13 13 6 13 26 22 47 18 18 16 18 19 19 25 25 24 23 21 21 19 19 17 16 19 23 25 25 21 23 19 17 15 13 10 8 6 5 5 6 8 8
8 11 16 23 12 18 8 15 9 15 6 5 8 7 8 8 13 18 15 19 15 28 25 21 21 24 26 27 29 28 28 28 28 29 30 28 28 28 26 25 22 19 16 16 14 12 11 10 10 10 10 11 12 12
16 17 21 18 29 8 12 14 15 12 11 8 7 7 8 8 13 15 10 9 20 28 30 27 19 20 27 32 37 35 34 33 31 29 29 28 29 32 28 27 23 20 17 15 12 11 11 12 12 13 14 15 16 17
16 26 20 17 22 16 14 10 12 9 9 12 7 8 7 10 7 9 6 11 28 35 32 28 32 30 32 30 29 29 28 29 31 28 27 23 25 21 19 19 20 20 16 12 12 13 13 13 14 15 16 18 20 22
18 23 15 15 15 10 9 8 12 16 10 7 10 7 9 7 10 10 4 11 18 22 25 28 27 28 30 28 26 25 24 23 21 25 29 22 16 14 14 13 13 15 17 17 18 17 18 19 21 22 23 24 26 29
14 11 15 22 11 10 9 14 15 10 11 13 8 9 7 11 9 5 5 11 9 14 17 17 17 18 21 20 19 19 19 16 15 16 14 12 14 16 16 17 19 20 22 22 24 27 29 30 31 33 34 33 34 37
15 22 12 25 17 25 8 8 11 12 8 17 7 12 7 6 5 6 6 8 9 12 16 19 17 15 13 14 12 10 6 4 5 8 11 11 13 17 19 21 26 29 31 32 33 34 35 36 38 44 49 52 53 51
14 27 13 13 12 17 19 11 10 15 18 8 5 5 6 10 13 15 16 13 9 10 15 22 25 21 18 15 13 10 9 9 8 8 12 16 19 19 24 26 27 28 30 30 30 32 34 37 43 48 51 53 56 58
28 34 9 18 10 13 19 19 26 34 36 32 37 50 42 36 25 18 13 8 5 11 21 26 25 19 15 15 17 17 17 17 19 19 19 20 21 23 25 27 28 29 32 34 36 37 38 41 43 44 46 48 49 51
16 19 16 18 12 16 29 40 47 53 59 57 53 47 31 23 31 37 36 26 18 13 13 16 20 22 21 19 20 18 17 18 20 21 23 25 27 29 31 33 35 37 38 40 42 46 50 53 54 56 57 57 57 58
17 17 8 7 6 9 7 8 11 11 13 13 14 10 8 5 6 6 22 35 33 17 17 26 28 27 26 24 23 23 20 22 25 27 29 30 30 32 34 36 39 42 43 45 49 54 56 59 61 60 61 61 61 61
11 16 13 7 6 8 14 11 8 6 11 8 11 12 9 5 4 5 16 31 42 32 18 28 29 29 28 26 26 24 26 30 31 32 34 35 37 38 40 42 45 47 50 54 56 57 58 57 57 56 56 57 59 59
Wind_Direction_850mb
275 274 275 266 256 254 255 260 262 263 257 246 252 262 257 247 237 219 228 227 209 200 221 215 227 214 203 194 179 151 127 194 125 207 220 196 214 198 172 158 169 162 175 189 196 225 241 167 88 170 250 331 300 215
274 271 269 267 260 254 252 255 259 264 260 252 251 252 255 256 250 241 247 223 228 223 220 218 231 237 231 222 203 181 196 161 165 189 209 169 162 165 152 208 37 201 192 193 195 209 306 189 268 166 36 341 358 185
276 268 264 263 259 257 252 254 258 257 256 256 252 252 252 249 246 251 241 213 216 218 248 242 236 241 235 230 223 189 213 184 184 186 129 97 213 143 190 224 119 239 169 177 132 156 270 225 237 186 201 106 32 9
278 276 269 261 257 256 255 255 257 256 251 250 248 245 247 247 247 248 251 210 211 209 219 225 229 225 233 226 223 223 229 191 181 171 170 182 194 184 202 350 240 174 139 136 360 298 288 240 243 224 204 258 300 309
278 276 271 266 260 256 254 255 256 255 253 249 248 247 245 244 244 246 248 252 212 190 192 173 204 218 223 218 217 219 204 194 165 160 181 195 115 148 214 33 241 185 163 176 209 187 181 224 222 215 224 234 258 263
272 270 269 270 268 262 257 255 255 256 254 249 244 242 238 237 236 233 232 241 232 204 204 164 193 185 197 199 205 212 218 200 186 165 155 173 181 178 175 209 202 185 177 156 173 191 200 219 235 237 243 260 255 234
264 260 262 269 273 260 253 253 262 267 264 259 251 245 234 233 229 227 183 182 215 201 174 137 166 175 158 155 157 174 177 185 156 145 190 145 180 170 146 203 221 205 192 173 179 188 206 222 239 239 249 250 234 215
259 259 266 269 271 273 265 262 265 268 273 265 264 251 241 229 231 238 240 241 238 216 192 179 112 145 167 154 135 153 153 161 176 156 161 155 126 133 239 235 232 186 186 191 171 167 156 185 195 181 165 154 202 226
253 256 264 261 259 262 269 273 271 272 265 269 266 247 237 223 223 232 239 238 242 234 239 139 153 164 169 142 127 146 154 158 165 165 211 148 183 213 223 216 178 182 176 195 192 196 175 161 164 173 201 241 251 235
238 247 269 260 252 257 262 268 271 269 271 268 244 217 217 213 213 210 200 195 203 201 238 185 127 128 164 136 137 122 169 149 160 217 150 135 247 131 85 112 131 140 183 146 175 197 234 253 261 259 271 277 273 264
248 265 271 269 252 250 257 261 266 270 273 244 200 209 200 178 179 196 204 189 184 188 164 139 118 135 165 133 133 136 162 156 153 226 131 215 259 121 154 176 180 194 200 207 212 207 223 250 258 254 263 271 268 261
256 262 269 267 261 262 256 259 257 251 244 218 184 177 155 170 194 205 189 195 185 164 161 131 135 117 126 143 114 184 139 143 189 146 125 237 129 79 134 178 218 235 239 238 239 243 249 257 262 265 270 267 261 255
240 251 266 261 250 251 256 251 252 244 246 209 184 173 153 227 181 192 161 158 169 155 163 147 125 129 120 145 116 149 145 181 131 106 211 194 99 58 38 46 140 166 194 199 204 214 224 234 244 249 253 257 257 252
238 204 273 41 348 317 268 255 247 204 191 210 179 184 189 223 176 161 172 185 151 146 150 143 119 131 134 140 134 143 98 132 168 154 224 73 33 16 21 26 38 79 124 134 169 178 192 202 218 237 244 244 247 246
265 329 355 342 338 313 328 310 196 192 188 191 187 251 191 43 71 125 65 82 95 150 141 116 77 108 109 121 84 123 155 163 186 206 73 45 17 26 34 45 59 72 88 111 118 123 125 125 137 150 179 212 219 217
219 282 307 339 343 331 336 84 209 214 93 62 34 100 333 54 331 62 60 59 115 146 134 101 125 116 121 127 143 166 155 178 109 56 50 32 37 42 52 59 73 82 83 82 87 95 100 106 107 112 120 129 129 128
87 59 20 7 339 340 335 222 71 52 48 48 53 23 358 33 38 31 23 30 336 183 116 122 116 99 126 110 94 16 56 60 72 64 41 41 48 55 62 64 77 82 87 92 94 96 98 100 103 102 112 119 125 131
60 35 16 357 348 328 37 48 78 62 60 25 55 22 52 34 17 27 10 13 43 34 38 54 29 52 45 74 81 52 50 67 77 68 50 49 53 60 66 74 81 88 94 98 99 100 105 104 103 105 109 117 125 132
48 27 15 10 10 53 67 46 52 88 61 58 57 49 60 75 45 47 44 66 78 87 86 47 56 48 59 39 38 47 44 43 37 67 60 56 60 63 69 75 79 86 93 97 100 102 95 104 117 125 129 134 151 152
42 17 13 13 11 75 73 38 57 76 63 69 47 40 61 58 33 33 44 58 57 52 48 44 41 25 41 31 47 18 32 43 93 123 74 49 57 70 76 76 78 76 72 72 71 71 78 80 83 87 88 95 143 165
41 34 23 24 46 56 70 39 53 67 87 76 45 54 79 44 32 19 29 27 61 34 62 41 34 47 53 47 48 66 48 88 90 103 94 83 68 73 77 77 74 73 72 69 65 63 55 53 53 45 45 10 319 286
81 59 47 46 58 65 64 38 57 36 68 85 61 49 44 38 25 21 33 40 65 27 24 10 33 57 58 55 62 67 74 79 86 87 86 95 96 81 73 71 74 69 63 58 50 48 46 43 29 7 351 320 304 302
79 52 53 30 72 43 7 25 46 22 55 63 57 45 40 49 42 31 74 49 59 13 25 43 58 65 70 72 74 79 81 81 87 89 81 75 77 75 72 69 66 64 63 57 49 38 24 14 360 343 333 319 314 309
76 53 31 35 25 6 1 30 23 24 38 41 46 59 45 34 52 64 69 61 9 27 44 55 75 86 82 75 68 67 68 73 76 81 82 83 80 75 71 70 67 65 60 55 44 31 16 360 344 332 323 317 312 308
78 13 23 5 12 15 25 18 7 10 53 23 61 54 43 40 68 64 60 15 11 30 41 58 62 63 65 65 65 66 69 72 70 80 81 80 85 84 77 70 61 56 49 36 25 14 2 349 338 328 319 311 305 302
68 24 40 3 4 26 1 30 19 15 6 58 39 53 44 63 67 63 61 12 19 25 34 47 55 63 63 63 69 76 77 75 70 76 74 68 70 64 62 47 37 24 16 10 358 348 338 330 323 316 312 309 305 301
45 355 25 20 5 358 48 38 28 39 38 24 0 15 45 67 72 75 100 46 44 37 40 43 48 55 62 68 73 78 83 79 61 57 58 36 26 24 16 7 358 350 344 336 327 320 317 314 310 303 298 295 297 297
48 33 25 0 43 28 57 41 31 16 356 345 356 33 69 63 95 123 125 116 89 60 39 35 39 46 47 46 43 37 14 322 307 333 328 332 336 335 328 325 319 315 312 309 306 303 301 299 297 292 293 295 295 293
26 352 23 18 41 52 37 26 13 360 337 354 87 76 92 74 111 122 120 114 90 43 42 47 40 31 23 17 15 6 355 349 351 330 321 317 317 316 315 316 314 313 311 310 309 310 308 306 304 303 302 301 300 299
7 18 67 31 48 47 18 47 39 50 67 86 102 102 92 91 92 94 91 82 45 29 29 19 14 15 17 17 15 12 9 3 358 357 352 343 337 331 329 326 325 324 323 320 318 317 314 310 308 306 305 305 305 305
35 38 49 51 76 74 83 83 78 80 84 87 94 96 104 106 84 63 56 52 43 38 26 13 9 11 10 11 11 10 2 357 350 341 333 327 325 326 325 324 323 322 319 316 318 320 320 318 317 314 312 311 310 309
37 38 51 69 66 55 60 54 57 57 49 53 47 51 65 81 87 77 29 24 22 15 12 9 3 2 359 353 349 345 339 336 334 329 324 319 316 314 315 316 317 317 317 317 319 319 318 317 316 316 314 313 313 311
40 39 49 60 44 25 15 22 48 72 50 46 42 36 38 46 81 53 12 5 5 4 0 355 355 348 343 340 339 332 328 326 323 321 319 318 317 317 319 319 317 320 320 318 318 318 318 318 317 318 318 317 316 315